User: anonymous   Login
Location: Berlise
(49.6641°N, 4.1077°E)
Time: 00:08:09
(UTC+00:00)
Language:

SKYMED 2 - Orbit

View from above orbital plane
View from above orbital plane
View from above satellite
View from above satellite

Ground track
Ground track

The orbit data is extracted from the following two-line orbital elements,

1 32376U 07059A   21110.61697319  .00000372  00000-0  53289-4 0  9992
2 32376  97.8901 295.3317 0001368  84.8133 275.3252 14.82150754723074
Epoch (UTC): 20 April 2021 14:48:26
Eccentricity: 0.0001368
inclination: 97.8901°
perigee height: 621 km
apogee height: 623 km
right ascension of ascending node: 295.3317°
argument of perigee: 84.8133°
revolutions per day: 14.82150754
mean anomaly at epoch: 275.3252°
orbit number at epoch: 72307

The dashed part of the orbit path shows where the satellite is in the earth's shadow,  

DLR